Powrót do katalogu

AIRSAT-07

AktywnyNaukaPO
NORAD 63298·PAYLOAD·🇨🇳 China
Ta nazwa satelity nie została jeszcze potwierdzona przez oficjalne źródła.

Wystrzelony Mar 17, 2025 z Jiuquan Satellite Launch Center

Loading…

Następne Przeloty (najbliższe 24 godziny)

TLE

ŚwieżeSource: Space-Track

Epoka: Sep 14, 2026, 13:23 UTC

1 63298U 25055H   26257.55814395  .00051862  00000-0  10410-2 0  9997
2 63298  97.6642  48.5533 0005080 182.0771 178.0458 15.46501943 83227

Śledź AIRSAT-07 w czasie rzeczywistym z AllMySat

Download on the App Store